This demonstration page uses our WeatherBlox Daily Observations layout. Learn more.

Left ArrowRight Arrow

Hourly Observations for July 3, 2018

Temp ( °F °C ) Dew Point ( °F °C ) Humidity (%) Winds ( mph kmh ) Pressure ( in mb ) Visibility ( mi km ) Precip ( " mm )
12:16 am 00:16 Mostly Cloudy 75 24 75 24 100 100 ESE 3 6 30.09 1019 10 16.0934 N/A
12:36 am 00:36 Mostly Cloudy 75 24 75 24 100 100 SSE 3 6 30.09 1019 10 16.0934 N/A
12:57 am 00:57 Partly Cloudy 75 24 75 24 100 100 SSE 3 6 30.09 1019 10 16.0934 N/A
1:16 am 01:16 Clear 75 24 75 24 100 100 SSE 3 6 30.09 1019 10 16.0934 N/A
1:36 am 01:36 Clear 75 24 75 24 100 100 N N/A 30.09 1019 10 16.0934 N/A
1:57 am 01:57 Clear 73 23 73 23 100 100 N N/A 30.09 1019 10 16.0934 N/A
2:16 am 02:16 Clear 73 23 73 23 100 100 N N/A 30.09 1019 10 16.0934 N/A
2:36 am 02:36 Clear 72 22 72 22 100 100 N N/A 30.09 1019 10 16.0934 N/A
2:57 am 02:57 Clear 72 22 72 22 100 100 N N/A 30.09 1019 10 16.0934 N/A
3:16 am 03:16 Clear 72 22 72 22 100 100 N N/A 30.09 1019 10 16.0934 N/A
3:36 am 03:36 Clear 72 22 72 22 100 100 N N/A 30.09 1019 7 11.26538 N/A
3:56 am 03:56 Clear 72 22 72 22 100 100 ESE 5 7 30.09 1019 10 16.0934 N/A
4:16 am 04:16 Clear 73 23 73 23 100 100 ESE 6 9 30.09 1019 10 16.0934 N/A
4:37 am 04:37 Clear 73 23 73 23 100 100 N N/A 30.06 1018 10 16.0934 N/A
4:56 am 04:56 Clear 72 22 72 22 100 100 N N/A 30.09 1019 7 11.26538 N/A
5:16 am 05:16 Clear 72 22 72 22 100 100 N N/A 30.09 1019 7 11.26538 N/A
5:37 am 05:37 Clear 72 22 72 22 100 100 SSE 5 7 30.09 1019 7 11.26538 N/A
5:56 am 05:56 Clear 72 22 72 22 100 100 SE 5 7 30.09 1019 7 11.26538 N/A
6:16 am 06:16 Clear 72 22 72 22 100 100 N N/A 30.09 1019 7 11.26538 N/A
6:37 am 06:37 Sunny 72 22 72 22 100 100 SE 3 6 30.09 1019 7 11.26538 N/A
6:56 am 06:56 Sunny 72 22 72 22 100 100 N N/A 30.09 1019 5 8.0467 N/A
7:16 am 07:16 Sunny 72 22 72 22 100 100 N N/A 30.09 1019 4 6.43736 N/A
7:37 am 07:37 Sunny 72 22 72 22 100 100 N N/A 30.09 1019 5 8.0467 N/A
7:56 am 07:56 Sunny 73 23 73 23 100 100 N N/A 30.12 1020 5 8.0467 N/A
8:16 am 08:16 Sunny 75 24 75 24 100 100 N N/A 30.12 1020 7 11.26538 N/A
8:37 am 08:37 Sunny 77 25 77 25 100 100 SE 3 6 30.12 1020 10 16.0934 N/A
8:56 am 08:56 Sunny 77 25 77 25 100 100 SE 6 9 30.12 1020 10 16.0934 N/A
9:17 am 09:17 Sunny 79 26 77 25 94 94 SSE 7 11 30.12 1020 10 16.0934 N/A
9:37 am 09:37 Sunny 81 27 77 25 89 89 SE 7 11 30.15 1021 10 16.0934 N/A
9:56 am 09:56 Sunny 81 27 77 25 89 89 SSE 7 11 30.15 1021 10 16.0934 N/A
10:17 am 10:17 Sunny 81 27 77 25 89 89 SSE 8 13 30.15 1021 10 16.0934 N/A
10:37 am 10:37 Sunny 82 28 77 25 84 84 S 6 9 30.15 1021 10 16.0934 N/A
10:56 am 10:56 Sunny 82 28 77 25 84 84 SSE 8 13 30.15 1021 10 16.0934 N/A
11:17 am 11:17 Sunny 82 28 77 25 84 84 SE 8 13 30.15 1021 10 16.0934 N/A
11:37 am 11:37 Sunny 84 29 79 26 84 84 SSE 6 9 30.15 1021 10 16.0934 N/A
11:56 am 11:56 Sunny 84 29 79 26 84 84 SE 6 9 30.15 1021 10 16.0934 N/A
12:17 pm 12:17 Sunny 86 30 79 26 79 79 SSE 6 9 30.15 1021 10 16.0934 N/A
12:37 pm 12:37 Sunny 86 30 79 26 79 79 SSE 6 9 30.15 1021 10 16.0934 N/A
12:56 pm 12:56 Sunny 88 31 79 26 75 75 SSE 6 9 30.15 1021 10 16.0934 N/A
1:17 pm 13:17 Partly Cloudy 88 31 79 26 75 75 S 3 6 30.15 1021 10 16.0934 N/A
1:37 pm 13:37 Partly Cloudy 88 31 79 26 75 75 SE 6 9 30.15 1021 10 16.0934 N/A
1:56 pm 13:56 Sunny 88 31 79 26 75 75 S 3 6 30.15 1021 10 16.0934 N/A
2:17 pm 14:17 Sunny 88 31 79 26 75 75 ESE 8 13 30.12 1020 10 16.0934 N/A
2:37 pm 14:37 Partly Cloudy 88 31 79 26 75 75 N N/A 30.12 1020 10 16.0934 N/A
2:56 pm 14:56 Partly Cloudy 88 31 77 25 70 70 ESE 3 6 30.12 1020 10 16.0934 N/A
3:17 pm 15:17 Partly Cloudy 90 32 79 26 71 71 ESE 7 11 30.12 1020 10 16.0934 N/A
3:36 pm 15:36 Partly Cloudy 90 32 79 26 71 71 SSE 5 7 30.12 1020 10 16.0934 N/A
3:56 pm 15:56 Partly Cloudy 90 32 81 27 75 75 E 10 17 30.12 1020 10 16.0934 N/A
4:17 pm 16:17 Cloudy 73 23 73 23 100 100 SSE 17 28 30.15 1021 1.25 2.011675 N/A
4:36 pm 16:36 Cloudy 73 23 73 23 100 100 SE 13 20 30.15 1021 2.5 4.02335 N/A
4:56 pm 16:56 Mostly Cloudy 75 24 73 23 94 94 S 9 15 30.15 1021 10 16.0934 N/A
5:17 pm 17:17 Partly Cloudy 73 23 73 23 100 100 S 9 15 30.15 1021 10 16.0934 N/A
5:36 pm 17:36 Sunny 75 24 75 24 100 100 S 10 17 30.15 1021 10 16.0934 N/A
5:56 pm 17:56 Sunny 75 24 75 24 100 100 SSE 7 11 30.15 1021 10 16.0934 N/A
6:17 pm 18:17 Sunny 75 24 75 24 100 100 SSE 7 11 30.15 1021 10 16.0934 N/A
6:36 pm 18:36 Sunny 77 25 75 24 94 94 SSE 7 11 30.15 1021 10 16.0934 N/A
6:57 pm 18:57 Sunny 77 25 75 24 94 94 S 3 6 30.15 1021 10 16.0934 N/A
7:16 pm 19:16 Sunny 77 25 75 24 94 94 SSE 5 7 30.15 1021 10 16.0934 N/A
7:36 pm 19:36 Sunny 77 25 75 24 94 94 ESE 3 6 30.15 1021 10 16.0934 N/A
7:57 pm 19:57 Sunny 77 25 75 24 94 94 SE 6 9 30.15 1021 10 16.0934 N/A
8:16 pm 20:16 Sunny 77 25 75 24 94 94 ESE 7 11 30.15 1021 10 16.0934 N/A
8:36 pm 20:36 Sunny 75 24 75 24 100 100 SSE 5 7 30.15 1021 10 16.0934 N/A
8:57 pm 20:57 Sunny 75 24 75 24 100 100 SSE 3 6 30.15 1021 10 16.0934 N/A
9:16 pm 21:16 Clear 75 24 75 24 100 100 SE 3 6 30.15 1021 10 16.0934 N/A
9:36 pm 21:36 Clear 73 23 73 23 100 100 N N/A 30.15 1021 10 16.0934 N/A
9:57 pm 21:57 Clear 73 23 73 23 100 100 N N/A 30.15 1021 10 16.0934 N/A
10:16 pm 22:16 Clear 73 23 73 23 100 100 N N/A 30.15 1021 10 16.0934 N/A
10:36 pm 22:36 Clear 72 22 72 22 100 100 N N/A 30.18 1022 10 16.0934 N/A
10:57 pm 22:57 Clear 72 22 72 22 100 100 SSE 3 6 30.18 1022 10 16.0934 N/A
11:16 pm 23:16 Clear 73 23 73 23 100 100 SSE 6 9 30.15 1021 10 16.0934 N/A
11:37 pm 23:37 Clear 73 23 73 23 100 100 ESE 3 6 30.15 1021 10 16.0934 N/A
11:56 pm 23:56 Clear 72 22 72 22 100 100 ESE 3 6 30.18 1022 10 16.0934 N/A

Powered by AerisWeather